Location: ??? ?????
(38.0796°N, 23.9792°E)
Time: 13:21:50
(UTC+00:00)

Daily predictions for brighter satellites

Satellite Brightness Start Highest point End
(mag) Time Altitude Azimuth Time Altitude Azimuth Time Altitude Azimuth
Cosmos 2360 Rocket 2.7 16:51:58 10° N 16:57:17 39° ENE 17:02:31 10° SE
Meteor 1-13 Rocket 4.4 16:51:30 10° N 16:57:23 61° E 17:03:16 10° SSE
OAO 2 Rocket 4.2 16:54:26 10° W 16:59:17 45° SSW 17:04:13 10° ESE
Cosmos 1437 Rocket 3.4 16:56:53 10° SSE 17:00:36 36° E 17:04:19 10° NNE
PAYLOAD B 4.3 16:57:15 10° SSE 17:02:41 64° ENE 17:08:10 10° N
Cosmos 2251 Rocket 3.6 16:57:51 10° N 17:03:02 57° ENE 17:08:09 10° SSE
Cosmos 1605 Rocket 4.0 16:58:27 10° N 17:04:53 76° E 17:11:13 10° SSE
CZ-4B DEB 4.3 17:00:36 10° SSE 17:06:08 88° WSW 17:11:43 10° NNW
Cosmos 2237 4.3 17:01:19 10° NNW 17:07:04 87° ENE 17:12:44 10° SSE
USA 308 4.4 17:08:34 10° NNW 17:11:20 19° NNE 17:14:05 10° ENE
Cosmos 1743 3.9 17:08:03 10° SSW 17:11:44 47° W 17:15:25 10° N
Exosat Rocket 4.0 17:07:49 10° S 17:12:28 41° ESE 17:17:45 10° NE
Meteor 1-11 Rocket 4.1 17:08:27 10° SSW 17:14:24 79° W 17:20:18 10° N
Milstar 3 Cent rocket 4.0 17:09:41 10° WSW 17:15:30 39° S 17:26:13 10° ESE
Tiangong -1.7 17:13:36 10° WNW 17:16:41 57° SSW 17:19:34 11° SE
Cosmos 1470 Rocket 3.6 17:14:16 10° S 17:18:37 57° E 17:23:01 10° NNE
Cosmos 1023 Rocket 4.4 17:14:16 10° NNW 17:19:29 76° ENE 17:24:42 10° SSE
Okean O Rocket 2.0 17:17:31 10° SE 17:21:41 42° ENE 17:25:52 10° N
H-2A R/B 4.0 17:25:22 10° SW 17:27:26 14° S 17:30:46 10° SSE
IGS 5A 3.6 17:28:04 10° SSE 17:32:03 51° ENE 17:36:04 10° N
Cosmos 1140 Rocket 3.5 17:27:30 10° NNW 17:32:43 85° WSW 17:37:55 10° SSE
Cosmos 1727 Rocket 4.0 17:27:36 10° S 17:33:57 86° E 17:40:17 10° N
Cosmos 2333 4.4 17:31:36 10° NNW 17:37:18 54° ENE 17:42:42 11° SE
YAOGAN 1 3.2 17:33:25 10° S 17:37:39 57° W 17:41:54 10° NNW
CSL-04 Rocket 4.3 17:34:34 11° SE 17:39:30 37° ENE 17:44:33 10° N
Cosmos 2322 Rocket 2.8 17:36:01 10° NNW 17:41:37 60° WSW 17:47:11 10° S
SL-27 R/B 2.3 17:39:21 10° S 17:42:37 57° ESE 17:45:52 10° NNE
Cosmos 2237 Rocket 4.2 17:42:16 10° NE 17:42:55 10° NE 17:43:34 10° NE
ISS -1.1 17:41:17 10° WNW 17:43:35 17° NNW 17:45:53 10° NNE
Cosmos 2084 Rocket 3.6 17:40:09 10° NNW 17:43:48 42° NE 17:45:29 26° ESE
Cosmos 1975 3.0 17:41:50 10° SSE 17:45:34 44° E 17:49:21 10° NNE
USA 306 3.1 17:42:44 10° NW 17:46:21 42° NE 17:47:47 28° E
USA 267 3.8 17:40:55 10° SSE 17:47:20 57° SW 17:53:48 10° NW
In-Cosmos 22 4.2 17:42:27 10° N 17:48:04 63° E 17:53:45 10° SSE
Cosmos 1818 4.5 17:44:50 10° NNW 17:49:41 31° NE 17:51:47 24° E
Cosmos 407 Rocket 3.8 17:44:27 10° NNW 17:49:46 73° WSW 17:55:04 10° S
CZ-4B R/B 3.6 17:44:12 10° S 17:49:50 70° WSW 17:55:30 10° NNW
Cosmos 1842 3.5 17:47:19 10° NNW 17:51:06 67° W 17:54:51 10° S
SJ-6B 2.8 17:47:31 11° SSE 17:51:12 61° ENE 17:55:03 10° N
Cosmos 1371 Rocket 4.3 17:48:15 10° SSW 17:53:33 72° WNW 17:58:49 10° NNE
USA 186 1.7 17:53:16 41° ESE 17:53:56 51° ENE 17:56:57 10° N
Cosmos 2322 4.1 17:49:32 10° N 17:54:53 41° ENE 17:57:24 27° ESE
KORONAS-FOTON 3.7 17:52:04 10° N 17:55:49 61° E 17:58:07 22° SSE
FALCON 9 R/B 4.1 17:23:43 10° WSW 17:56:02 68° S 18:01:53 24° E
Cosmos 1626 1.8 17:53:02 10° N 17:56:36 74° E 17:59:02 19° SSE
Cosmos 2333 Rocket 2.2 17:54:40 10° NNW 18:00:28 90° ESE 18:05:43 13° SSE
Cosmos 2056 Rocket 3.9 17:57:17 10° SSW 18:02:22 63° WNW 18:07:28 10° NNE
CZ-4 R/B 2.5 18:02:17 10° S 18:05:54 42° W 18:09:34 10° NNW
Feng Yun 1-1 Rocket 4.4 18:01:31 10° S 18:06:57 75° WSW 18:12:34 10° NNW
Cosmos 1933 Rocket 3.9 18:05:54 10° SSW 18:10:11 66° W 18:14:30 10° N
SPOT 1/Viking Rocket 4.0 18:09:34 36° E 18:10:35 40° ENE 18:15:25 10° N
Cosmos 2219 Rocket 2.1 18:05:32 10° NNW 18:11:15 73° ENE 18:14:16 29° SSE
COSMOS 2428 3.1 18:06:14 10° N 18:11:41 43° ENE 18:13:06 37° E
CSL-04 Debris 4.1 18:08:21 13° SSE 18:13:12 83° ENE 18:18:39 10° NNW
Cosmos 1459 Rocket 3.8 18:07:22 10° N 18:13:27 89° E 18:19:31 10° S
Cosmos 1707 3.1 18:09:41 10° NNW 18:13:27 62° W 18:16:29 15° S
Geosat 4.3 18:14:09 41° E 18:15:17 48° ENE 18:20:07 10° NNW
Cosmos 1725 Rocket 4.0 18:10:01 10° N 18:16:06 57° E 18:19:08 29° SE
Resurs 01 Rocket 2.4 18:17:20 34° NE 18:17:20 34° NE 18:20:43 10° N
USA 307 2.6 18:14:22 10° NW 18:18:10 62° NE 18:18:12 62° NE
USA 305 2.7 18:14:34 10° NW 18:18:19 59° NE 18:18:19 59° NE
Cosmos 1869 Rocket 3.3 18:14:59 10° S 18:19:16 75° E 18:23:35 10° N
CENTAUR R/B 3.5 18:13:45 10° NNW 18:21:53 52° NE 18:25:32 35° ESE
FALCON 9 R/B 3.9 18:17:12 10° WSW 18:22:43 40° S 18:30:18 27° SE
Okean 1-7 3.7 18:20:13 10° NNW 18:24:29 55° W 18:28:17 13° S
Cosmos 1802 Rocket 3.9 18:20:19 10° N 18:26:36 89° E 18:32:05 14° S
Okean 2 4.5 18:24:31 10° N 18:26:57 32° NNE 18:26:57 32° NNE
IRS-1C Rocket 4.0 18:27:49 51° SE 18:28:58 66° ENE 18:34:12 10° N
Cosmos 2098 Rocket 3.8 18:31:06 10° SSW 18:35:45 68° W 18:41:36 10° N
Iridium 4 Rocket 2.9 18:33:44 10° N 18:37:45 79° NW 18:37:45 79° NW
Cosmos 1674 4.1 18:34:56 10° NNW 18:38:21 35° W 18:39:55 24° SW
Cosmos 1452 Rocket 3.3 18:34:55 10° SSW 18:40:10 85° ESE 18:45:28 10° NNE
Cosmos 2360 Rocket 4.1 18:36:24 10° NW 18:41:01 26° WSW 18:45:37 10° SSW
Cosmos 2123 Rocket 4.4 18:37:24 10° SSW 18:43:36 65° W 18:49:53 10° N
Okean-O 2.9 18:43:42 60° SW 18:44:12 66° W 18:48:37 10° NNW
Cosmos 676 Rocket 4.4 18:42:07 10° NNW 18:47:15 60° WSW 18:48:49 42° SSW
Cosmos 2016 Rocket 4.0 18:42:03 10° N 18:48:09 74° W 18:51:21 30° S
USA 308 3.9 18:46:02 10° NW 18:48:34 39° WNW 18:48:34 39° WNW
SL-16 R/B 4.5 18:48:11 10° NNE 18:48:40 11° NNE 18:48:40 11° NNE
Okean O Rocket 4.4 18:55:31 10° SW 18:58:10 16° W 19:00:50 10° NW
Cosmos 1867 4.1 19:10:05 10° SW 19:14:33 53° W 19:14:33 53° W
NOSS 0 Rocket 4.0 19:10:14 10° NNW 19:15:43 71° NNW 19:15:43 71° NNW
Cosmos 2237 Rocket 3.3 19:22:25 10° NNW 19:25:46 37° N 19:25:46 37° N
CZ-4C R/B 4.5 19:41:01 10° N 19:45:25 22° NNE 19:45:25 22° NNE
NOSS 3-2 (A) 4.5 19:45:26 10° NW 19:53:10 59° WSW 19:53:10 59° WSW
Resurs 01 Rocket 4.4 19:54:51 15° WNW 19:54:51 15° WNW 19:56:19 10° NW
NOSS 3-2 (C) 4.3 19:53:49 10° NNW 20:00:12 65° NW 20:00:12 65° NW
CENTAUR R/B 4.0 20:04:41 10° NW 20:12:42 44° WSW 20:12:44 43° WSW
